| time (UTC) | temp F | wind direction | speed MPH | gust MPH | rain 1hr in | rain 24hr in | rain mn in | humidity % | barometer mb |
| 20260504044532 | 40 | 44 | 3.0 | 0.0 | 0.00 | 0.00 | 0.00 | 100 | 1013.7 |
| 20260504043025 | 40 | 57 | 3.0 | 0.0 | 0.00 | 0.00 | 0.00 | 100 | 1013.5 |
| 20260504041519 | 41 | 52 | 2.0 | 0.0 | 0.00 | 0.00 | 0.00 | 100 | 1013.6 |
| 20260504040016 | 42 | 320 | 2.0 | 0.0 | 0.00 | 0.00 | 0.00 | 100 | 1013.5 |
| 20260504034516 | 42 | 320 | 2.0 | 0.0 | 0.00 | 0.00 | 0.00 | 100 | 1013.6 |
| 20260504033015 | 43 | 239 | 0.0 | 0.0 | 0.00 | 0.00 | 0.00 | 100 | 1013.6 |
| 20260504031514 | 44 | 239 | 1.0 | 0.0 | 0.00 | 0.00 | 0.00 | 100 | 1013.4 |
| 20260504030015 | 45 | 239 | 1.0 | 0.0 | 0.00 | 0.00 | 0.00 | 100 | 1013.4 |
| 20260504024513 | 45 | 239 | 1.0 | 0.0 | 0.00 | 0.00 | 0.00 | 100 | 1013.3 |
| 20260504023013 | 45 | 240 | 2.0 | 0.0 | 0.00 | 0.00 | 0.00 | 100 | 1013.2 |
| 20260504021512 | 47 | 266 | 2.0 | 0.0 | 0.00 | 0.00 | 0.00 | 100 | 1013.4 |
| 20260504020012 | 48 | 224 | 1.0 | 0.0 | 0.00 | 0.00 | 0.00 | 100 | 1013.5 |
| 20260504014524 | 49 | 224 | 3.0 | 0.0 | 0.00 | 0.00 | 0.00 | 100 | 1013.4 |
| 20260504013013 | 51 | 265 | 5.0 | 0.0 | 0.00 | 0.00 | 0.00 | 100 | 1013.2 |
| 20260504011506 | 52 | 253 | 4.0 | 0.0 | 0.00 | 0.00 | 0.00 | 100 | 1013.0 |
| 20260504010002 | 52 | 265 | 4.0 | 0.0 | 0.00 | 0.00 | 0.00 | 100 | 1012.9 |
| 20260504004558 | 54 | 249 | 5.0 | 0.0 | 0.00 | 0.00 | 0.00 | 100 | 1012.8 |
| 20260504003053 | 56 | 240 | 6.0 | 0.0 | 0.00 | 0.00 | 0.00 | 100 | 1012.7 |
| 20260504001558 | 56 | 235 | 7.0 | 0.0 | 0.00 | 0.00 | 0.00 | 100 | 1012.6 |
| 20260504000048 | 57 | 254 | 8.0 | 0.0 | 0.00 | 0.00 | 0.00 | 100 | 1012.4 |
| 20260503234540 | 58 | 232 | 7.0 | 0.0 | 0.00 | 0.00 | 0.00 | 100 | 1012.2 |
| 20260503233036 | 59 | 231 | 7.0 | 0.0 | 0.00 | 0.00 | 0.00 | 100 | 1012.3 |
| 20260503231531 | 59 | 250 | 8.0 | 0.0 | 0.00 | 0.00 | 0.00 | 100 | 1012.2 |
| 20260503230027 | 59 | 225 | 10.0 | 0.0 | 0.00 | 0.00 | 0.00 | 100 | 1012.2 |
| 20260503224526 | 59 | 255 | 11.0 | 0.0 | 0.00 | 0.00 | 0.00 | 100 | 1012.1 |
| 20260503223018 | 59 | 243 | 13.0 | 0.0 | 0.00 | 0.00 | 0.00 | 100 | 1012.1 |
| 20260503221513 | 60 | 225 | 10.0 | 0.0 | 0.00 | 0.00 | 0.00 | 100 | 1012.3 |
| 20260503220009 | 60 | 244 | 14.0 | 0.0 | 0.00 | 0.00 | 0.00 | 100 | 1012.4 |
| 20260503214518 | 60 | 165 | 11.0 | 0.0 | 0.00 | 0.00 | 0.00 | 100 | 1012.2 |
| 20260503213100 | 59 | 254 | 14.0 | 0.0 | 0.00 | 0.00 | 0.00 | 100 | 1012.1 |
| 20260503211556 | 60 | 248 | 12.0 | 0.0 | 0.00 | 0.00 | 0.00 | 100 | 1012.0 |
| 20260503210056 | 60 | 269 | 14.0 | 0.0 | 0.00 | 0.00 | 0.00 | 100 | 1012.1 |
| 20260503204601 | 59 | 244 | 11.0 | 0.0 | 0.00 | 0.00 | 0.00 | 100 | 1012.1 |
| 20260503203042 | 58 | 259 | 14.0 | 0.0 | 0.00 | 0.00 | 0.00 | 100 | 1012.1 |
| 20260503201539 | 59 | 235 | 14.0 | 0.0 | 0.00 | 0.00 | 0.00 | 100 | 1012.2 |
| 20260503200043 | 58 | 240 | 16.0 | 0.0 | 0.00 | 0.00 | 0.00 | 100 | 1012.3 |
| 20260503194530 | 58 | 254 | 13.0 | 0.0 | 0.00 | 0.00 | 0.00 | 100 | 1012.6 |
| 20260503193026 | 58 | 298 | 11.0 | 0.0 | 0.00 | 0.00 | 0.00 | 100 | 1012.7 |
| 20260503191521 | 58 | 240 | 15.0 | 0.0 | 0.00 | 0.00 | 0.00 | 100 | 1013.1 |
| 20260503190017 | 57 | 263 | 14.0 | 0.0 | 0.00 | 0.00 | 0.00 | 100 | 1013.2 |
| 20260503184517 | 57 | 278 | 14.0 | 0.0 | 0.00 | 0.00 | 0.00 | 100 | 1013.5 |
| 20260503183008 | 58 | 267 | 12.0 | 0.0 | 0.00 | 0.00 | 0.00 | 100 | 1013.4 |
| 20260503181505 | 57 | 315 | 11.0 | 0.0 | 0.00 | 0.00 | 0.00 | 100 | 1013.4 |
| 20260503180108 | 56 | 223 | 11.0 | 0.0 | 0.00 | 0.00 | 0.00 | 100 | 1013.4 |
| 20260503174555 | 56 | 267 | 7.0 | 0.0 | 0.00 | 0.00 | 0.00 | 100 | 1013.5 |
| 20260503173142 | 55 | 211 | 12.0 | 0.0 | 0.00 | 0.00 | 0.00 | 100 | 1013.6 |
| 20260503171548 | 55 | 259 | 10.0 | 0.0 | 0.00 | 0.00 | 0.00 | 100 | 1013.9 |
| 20260503081514 | 40 | 286 | 9.0 | 0.0 | 0.00 | 0.00 | 0.00 | 100 | 1014.3 |
| 20260503071554 | 41 | 284 | 11.0 | 0.0 | 0.00 | 0.00 | 0.00 | 100 | 1013.4 |